[[{"header":{"parameterUnit":"m.s-1","parameterCategory":1,"la1":30.2991,"la2":30.254,"lo1":-89.0895,"lo2":-89.0444,"dx":0.0017,"dy":0.0017,"nx":28,"ny":28,"refTime":"2023-01-21T15:00:00:Z","depth":0,"parameterNumber":2,"parameterNumberName":"U-component_of_WINDS"},"data":[0,0,0,0,0,0,0,0,0,0,0,0,0,0,0,0,0,0,0,0,0,0,0,0,0,0,0,0,0,0,0,0,0,0,0,0,0,0,0,0,0,0,0,0,0,0,0,0,0,0,0,0,0,0,0,0,0,0,-3.2072,-3.2073,0,-3.2136,-3.2136,-3.2137,-3.216,-3.216,-3.216,-3.216,-3.2224,-3.2226,-3.2228,0,0,0,0,0,0,0,0,0,0,0,0,0,-3.1968,-3.197,-3.2072,-3.2073,-3.2074,-3.2135,-3.2136,-3.2137,-3.216,-3.216,-3.216,-3.2159,-3.2224,-3.2226,-3.2228,0,0,0,0,0,0,0,0,0,0,0,0,0,-3.202,-3.197,-3.2072,-3.2093,-3.2095,-3.2135,-3.2136,-3.2137,-3.216,-3.216,-3.216,-3.2159,-3.2223,-3.2226,-3.2228,-3.2253,0,0,-3.2237,-3.2239,0,0,0,0,0,0,0,0,-3.2017,-3.2024,-3.2089,-3.2091,-3.2094,-3.214,-3.2123,-3.2176,-3.216,-3.2136,-3.216,-3.2159,-3.2196,-3.2201,-3.2214,-3.2256,-3.2258,-3.2238,-3.2239,-3.2241,-3.2241,0,0,0,0,0,0,0,-3.2014,-3.2022,-3.2097,-3.209,-3.2093,-3.2098,-3.2105,-3.2133,-3.2167,-3.2138,-3.214,-3.2147,-3.2198,-3.2211,-3.2216,-3.2259,-3.2237,-3.224,-3.2242,-3.2243,-3.2319,-3.2319,0,0,0,0,0,0,-3.2007,-3.2018,-3.2095,-3.2099,-3.2054,-3.21,-3.2108,-3.2125,-3.2167,-3.2173,-3.2147,-3.2148,-3.2206,-3.2212,-3.2218,-3.2246,-3.2241,-3.2243,-3.2245,-3.2319,-3.2319,-3.232,0,0,0,0,0,0,-3.2005,-3.2014,-3.2093,-3.2059,-3.207,-3.2102,-3.2122,-3.2127,-3.214,-3.2174,-3.218,-3.2155,-3.2206,-3.2214,-3.2243,-3.2249,-3.2245,-3.2247,-3.2319,-3.2319,-3.2319,-3.2304,0,0,0,0,0,0,-3.2001,-3.2013,-3.2023,-3.2059,-3.2071,-3.2118,-3.2122,-3.2128,-3.2145,-3.2147,-3.2183,-3.2188,-3.2207,-3.2238,-3.2246,-3.2253,-3.2249,-3.2318,-3.2319,-3.2319,-3.2304,-3.2304,-3.2304,0,0,0,0,0,-3.1998,-3.2017,-3.2024,-3.2033,-3.2086,-3.2118,-3.2125,-3.2146,-3.2146,-3.2156,-3.2176,-3.2187,-3.2247,-3.2241,-3.225,-3.2258,-3.2318,-3.2319,-3.2319,-3.2305,-3.2304,-3.2304,0,0,0,0,0,0,-3.1982,-3.2023,-3.203,-3.2063,-3.2086,-3.2122,-3.2136,-3.2145,-3.217,-3.2171,-3.2195,-3.2203,-3.2229,-3.2246,-3.2239,-3.2281,-3.2283,-3.2285,-3.2269,-3.2269,-3.2268,-3.2264,-3.2252,0,0,0,0,0,-3.1983,-3.2006,-3.204,-3.2065,-3.2076,-3.2104,-3.2119,-3.2132,-3.2158,-3.2169,-3.2192,-3.2216,-3.224,-3.2255,-3.228,-3.2307,-3.2313,-3.2316,-3.2316,-3.2315,-3.2317,-3.2329,-3.233,-3.2322,-3.2322,-3.2322,0,0,-3.1984,-3.2009,-3.2022,-3.2062,-3.2083,-3.2105,-3.2112,-3.2137,-3.2153,-3.2172,-3.22,-3.2217,-3.2246,-3.2273,-3.2286,-3.2288,-3.232,-3.2316,-3.2316,-3.2318,-3.233,-3.233,-3.2331,-3.2322,-3.2322,-3.2322,0,0,-3.1997,-3.2019,-3.2041,-3.206,-3.2089,-3.2107,-3.2111,-3.2145,-3.2156,-3.2185,-3.2198,-3.2217,-3.2259,-3.2278,-3.2293,-3.2307,-3.2317,-3.2314,-3.2313,-3.2325,-3.2325,-3.2326,-3.2329,-3.233,-3.2316,-3.2316,-3.2316,0,-3.1995,-3.203,-3.205,-3.2073,-3.2089,-3.2106,-3.2126,-3.2144,-3.218,-3.219,-3.2191,-3.2241,-3.2262,-3.2291,-3.2294,-3.2307,-3.2311,-3.2311,-3.2324,-3.2324,-3.2325,-3.2328,-3.233,-3.2315,-3.2315,-3.2315,-3.2315,0,-3.2023,-3.2047,-3.2061,-3.2093,-3.2111,-3.2132,-3.2155,-3.2169,-3.218,-3.2196,-3.2223,-3.2247,-3.2275,-3.2283,-3.2295,-3.2314,-3.2313,-3.2319,-3.2322,-3.2325,-3.2328,-3.233,-3.2314,-3.2315,-3.2315,-3.2315,0,0,-3.2032,-3.2072,-3.2077,-3.209,-3.2122,-3.214,-3.2161,-3.2187,-3.2198,-3.2221,-3.2238,-3.227,-3.2274,-3.2291,-3.2304,-3.2314,-3.2321,-3.2318,-3.2319,-3.2316,-3.2339,-3.2334,-3.2336,-3.2327,-3.2327,-3.2328,-3.2336,0,-3.2047,-3.2085,-3.2102,-3.2132,-3.2152,-3.2166,-3.2184,-3.2204,-3.2219,-3.2237,-3.2253,-3.2275,-3.228,-3.2289,-3.23,-3.2318,-3.2325,-3.2317,-3.2341,-3.2342,-3.2333,-3.2338,-3.2334,-3.2341,-3.2338,-3.2338,-3.2338,0,-3.2072,-3.2093,-3.2124,-3.215,-3.2159,-3.2174,-3.2197,-3.2215,-3.2238,-3.2247,-3.2264,-3.2276,-3.2296,-3.2296,-3.2322,-3.2316,-3.2327,-3.2336,-3.2337,-3.234,-3.234,-3.2339,-3.2344,-3.2344,-3.2341,-3.2341,-3.2341,0,-3.2071,-3.2108,-3.213,-3.2141,-3.2173,-3.2183,-3.2196,-3.2218,-3.2231,-3.2251,-3.2259,-3.2282,-3.2294,-3.231,-3.2326,-3.2326,-3.235,-3.2353,-3.2357,-3.2357,-3.2362,-3.2362,-3.2368,-3.237,-3.237,-3.237,-3.237,0,-3.2087,-3.2105,-3.213,-3.2144,-3.2163,-3.2181,-3.22,-3.2214,-3.2232,-3.2248,-3.2262,-3.2276,-3.2298,-3.2314,-3.2327,-3.2345,-3.2351,-3.2358,-3.2361,-3.2357,-3.2355,-3.2364,-3.2363,-3.2371,-3.2371,-3.237,-3.237,0,-3.209,-3.2108,-3.2133,-3.2159,-3.2166,-3.2179,-3.2201,-3.2213,-3.2227,-3.2246,-3.2252,-3.2274,-3.2293,-3.2311,-3.2338,-3.2346,-3.2364,-3.2369,-3.2356,-3.2358,-3.2361,-3.236,-3.2372,-3.2373,-3.2375,-3.2375,-3.2375,0,-3.2098,-3.2112,-3.2139,-3.2149,-3.2162,-3.218,-3.2193,-3.221,-3.2223,-3.2247,-3.2256,-3.2276,-3.2293,-3.2323,-3.234,-3.2359,-3.2364,-3.2367,-3.2367,-3.2361,-3.2362,-3.2361,-3.2361,-3.2366,-3.2366,-3.2366,-3.2366,0,-3.211,-3.2117,-3.2135,-3.2155,-3.2169,-3.2186,-3.2203,-3.2211,-3.2231,-3.2244,-3.2264,-3.2277,-3.2302,-3.2321,-3.2341,-3.2354,-3.2363,-3.2365,-3.2367,-3.2362,-3.2354,-3.2357,-3.2354,-3.2365,-3.2365,-3.2366,-3.2366,-3.2366,-3.2115,-3.2126,-3.2146,-3.2164,-3.2178,-3.2193,-3.2205,-3.2219,-3.2236,-3.2257,-3.2266,-3.2285,-3.2303,-3.2332,-3.2344,-3.2358,-3.236,-3.2363,-3.2364,-3.2364,-3.2362,-3.2352,-3.2362,-3.2362,-3.2362,-3.2362,-3.2362,0,-3.2126,-3.2138,-3.2155,-3.2177,-3.2191,-3.2197,-3.2215,-3.2226,-3.2242,-3.2258,-3.2274,-3.2294,-3.2311,-3.2329,-3.2347,-3.2355,-3.2359,-3.2359,-3.2358,-3.236,-3.236,-3.2356,-3.2355,-3.2355,-3.2355,-3.2355,-3.2355,-3.2355,-3.2133,-3.2151,-3.216,-3.2185,-3.2197,-3.2215,-3.2224,-3.2237,-3.225,-3.2272,-3.2286,-3.2297,-3.2313,-3.2332,-3.2347,-3.2352,-3.2357,-3.2355,-3.2361,-3.236,-3.2361,-3.2361,-3.2357,-3.2357,-3.2357,-3.236,-3.236,-3.236]},{"header":{"parameterUnit":"m.s-1","parameterCategory":1,"la1":30.2991,"la2":30.254,"lo1":-89.0895,"lo2":-89.0444,"dx":0.0017,"dy":0.0017,"nx":28,"ny":28,"refTime":"2023-01-21T15:00:00:Z","depth":0,"parameterNumber":3,"parameterNumberName":"V-component_of_WINDS"},"data":[0,0,0,0,0,0,0,0,0,0,0,0,0,0,0,0,0,0,0,0,0,0,0,0,0,0,0,0,0,0,0,0,0,0,0,0,0,0,0,0,0,0,0,0,0,0,0,0,0,0,0,0,0,0,0,0,0,0,1.2162,1.2164,0,1.2332,1.2334,1.2336,1.233,1.2327,1.2325,1.2323,1.2502,1.2509,1.2516,0,0,0,0,0,0,0,0,0,0,0,0,0,1.1839,1.1845,1.2162,1.2164,1.2166,1.2332,1.2334,1.2336,1.233,1.2327,1.2324,1.2322,1.25,1.2508,1.2516,0,0,0,0,0,0,0,0,0,0,0,0,0,1.1991,1.1847,1.2161,1.2183,1.2186,1.2331,1.2334,1.2337,1.2331,1.2327,1.2324,1.232,1.2497,1.2507,1.2517,1.2654,0,0,1.2549,1.2554,0,0,0,0,0,0,0,0,1.1983,1.2003,1.2177,1.2181,1.2186,1.2306,1.2286,1.2443,1.2332,1.2276,1.2323,1.2319,1.244,1.2455,1.2495,1.2662,1.267,1.255,1.2557,1.2561,1.2564,0,0,0,0,0,0,0,1.1972,1.1996,1.2229,1.218,1.2185,1.2187,1.2204,1.2316,1.2376,1.2281,1.2281,1.2301,1.2442,1.2485,1.2499,1.2672,1.255,1.2559,1.2566,1.257,1.2968,1.2972,0,0,0,0,0,0,1.1956,1.1987,1.2224,1.2234,1.2073,1.2195,1.2215,1.2271,1.2375,1.2387,1.2303,1.23,1.2469,1.2487,1.2505,1.2677,1.2561,1.2571,1.2577,1.2963,1.2969,1.2973,0,0,0,0,0,0,1.1949,1.1977,1.2217,1.2111,1.2141,1.2204,1.2268,1.2276,1.2319,1.2392,1.2403,1.2336,1.2466,1.249,1.2618,1.2683,1.2576,1.2585,1.2958,1.2965,1.2971,1.3018,0,0,0,0,0,0,1.194,1.1975,1.2025,1.2112,1.2147,1.2325,1.2271,1.2282,1.2337,1.2334,1.2426,1.2438,1.2465,1.2603,1.2629,1.2695,1.2593,1.2953,1.2961,1.2969,1.3011,1.3025,1.3038,0,0,0,0,0,1.1929,1.2031,1.2028,1.2056,1.2211,1.2328,1.2349,1.2377,1.2342,1.2395,1.2443,1.2435,1.2671,1.2616,1.2645,1.2716,1.2949,1.2959,1.2968,1.3005,1.3023,1.3037,0,0,0,0,0,0,1.1951,1.2043,1.204,1.2173,1.2243,1.2327,1.2394,1.2394,1.2476,1.247,1.2503,1.2524,1.2654,1.2697,1.2634,1.2857,1.2806,1.2822,1.2824,1.2841,1.2854,1.2843,1.2602,0,0,0,0,0,1.1971,1.2056,1.2133,1.2243,1.2278,1.2331,1.2383,1.2399,1.2473,1.2503,1.256,1.2634,1.2726,1.2785,1.2873,1.3017,1.304,1.308,1.3093,1.3104,1.3119,1.3204,1.3225,1.3005,1.3005,1.3005,0,0,1.2014,1.2075,1.2127,1.2249,1.2305,1.2397,1.2355,1.2452,1.2522,1.2518,1.2644,1.2688,1.2773,1.2911,1.2975,1.2952,1.3184,1.3116,1.3124,1.3133,1.3216,1.3237,1.3256,1.3011,1.301,1.3009,0,0,1.214,1.2192,1.2293,1.235,1.2436,1.2471,1.2495,1.258,1.261,1.2735,1.2737,1.2821,1.2976,1.3039,1.3091,1.3246,1.3244,1.3273,1.3344,1.3427,1.3444,1.346,1.3521,1.3542,1.3287,1.3287,1.3287,0,1.2183,1.2318,1.2345,1.2444,1.2501,1.2501,1.2607,1.2661,1.2772,1.2812,1.2784,1.2983,1.304,1.3196,1.3234,1.3274,1.3307,1.3264,1.3439,1.3455,1.347,1.3529,1.3551,1.329,1.329,1.329,1.3289,0,1.237,1.2465,1.2536,1.2644,1.2708,1.2809,1.2854,1.2917,1.2928,1.2967,1.3099,1.3167,1.3272,1.331,1.3321,1.3469,1.3453,1.3431,1.3382,1.3494,1.355,1.3572,1.3295,1.3294,1.3293,1.3292,0,0,1.2514,1.2638,1.2664,1.2715,1.2812,1.2887,1.299,1.3092,1.3148,1.3224,1.3316,1.3449,1.3432,1.3491,1.351,1.3582,1.3708,1.3553,1.3556,1.3584,1.3883,1.3902,1.3927,1.3706,1.371,1.3714,1.3878,0,1.2655,1.2837,1.2866,1.3028,1.3119,1.3123,1.3214,1.3286,1.3325,1.3411,1.3455,1.3552,1.3518,1.3555,1.3626,1.3678,1.377,1.3666,1.3796,1.3801,1.3779,1.3955,1.3974,1.4125,1.3899,1.3902,1.3905,0,1.2842,1.2925,1.3096,1.3186,1.3225,1.3306,1.3405,1.3485,1.3567,1.3592,1.366,1.3672,1.3784,1.3727,1.3886,1.3815,1.387,1.3903,1.391,1.3927,1.3863,1.3982,1.4174,1.4198,1.3939,1.3936,1.3934,0,1.2937,1.3091,1.3215,1.3258,1.3364,1.3422,1.3469,1.3548,1.3609,1.3696,1.3738,1.3836,1.3891,1.3969,1.4009,1.3963,1.4167,1.4112,1.4195,1.4194,1.4241,1.4238,1.4449,1.4268,1.4268,1.4267,1.4267,0,1.3093,1.3199,1.326,1.3337,1.3458,1.3492,1.3611,1.3657,1.3728,1.3817,1.3825,1.3909,1.3954,1.4046,1.4078,1.4208,1.4231,1.4258,1.4266,1.426,1.4257,1.43,1.4292,1.4273,1.4272,1.4271,1.427,0,1.322,1.3265,1.3402,1.3491,1.3517,1.3602,1.3681,1.3758,1.3798,1.3911,1.3939,1.4003,1.4112,1.4159,1.4292,1.4314,1.4465,1.4462,1.4437,1.4441,1.4524,1.4517,1.4773,1.4811,1.46,1.4602,1.4603,0,1.3319,1.3401,1.3501,1.3561,1.361,1.3705,1.3769,1.3806,1.3872,1.3975,1.4041,1.415,1.4239,1.4414,1.4474,1.4578,1.4582,1.4664,1.4598,1.4591,1.459,1.4587,1.4598,1.4678,1.468,1.4682,1.4683,0,1.3492,1.3511,1.3601,1.3701,1.3776,1.3856,1.3935,1.3984,1.4034,1.4109,1.422,1.429,1.4428,1.4538,1.4646,1.4698,1.4702,1.4703,1.4729,1.4726,1.4711,1.4726,1.4476,1.4698,1.4697,1.4695,1.4695,1.4694,1.3612,1.3688,1.3771,1.3873,1.3936,1.401,1.4089,1.414,1.4233,1.4348,1.4364,1.4485,1.4571,1.4717,1.4773,1.4871,1.4851,1.4886,1.4897,1.4906,1.4915,1.4691,1.489,1.4889,1.4889,1.4889,1.4889,0,1.379,1.3844,1.3937,1.4048,1.413,1.4124,1.4212,1.4282,1.4387,1.4466,1.4555,1.4686,1.4794,1.4864,1.4974,1.5039,1.5044,1.5067,1.5066,1.5079,1.4923,1.4893,1.5062,1.5062,1.5062,1.5062,1.5062,1.5062,1.3892,1.4022,1.4052,1.4215,1.4269,1.4387,1.4439,1.451,1.4574,1.472,1.481,1.4854,1.4931,1.5048,1.5148,1.5166,1.5209,1.5235,1.5253,1.5107,1.5089,1.5072,1.5044,1.5242,1.5242,1.5401,1.5403,1.5404]}]]